Weather in Maanshan

China     30°11′20″N   114°17′19″E
temp.,
°C
wind,
m/s
gust,
m/s
humid.,
%
clouds,
%
prec.,
mm/h
press.,
hPa
HPBL,
m
2 july, sat
sat223:00+28e35805 0.0 100594
02:00+27e388252 0.0 1003162
05:00+26e368371 0.0 1004139
08:00+29e4675100 0.0 1004288
11:00+33ese565996 0.0 10041098
14:00+34e5655100 0.0 10021499
17:00+33e4664100 0.0 1001722
20:00+29ese3777100 0.1 1002125
3 july, sun
sun323:00+28e3875100 0.0 1002174
02:00+27ese3679100 0.0 1001133
05:00+27ese2279100 0.0 100124
08:00+29e2373100 0.0 1002267
11:00+33ese226096 0.0 1002992
14:00+34ese4355100 0.0 10001509
17:00+30ese3571100 0.1 999154
20:00+27ese3481100 0.6 100099
4 july, mon
mon423:00+27se2283100 1.9 100020
02:00+26ese1184100 1.9 99913
05:00+26e2384100 0.0 99849
08:00+28e2375100 0.0 999270
11:00+32e336270 0.0 999923
14:00+33e445758 0.2 9971464
17:00+29e587760 1.2 996235
20:00+27ssw1286100 6.4 99867
5 july, tue
tue523:00+27ese2390100 2.2 99862
02:00+26sse2290100 3.1 99836
05:00+25wsw2396100 1.6 99885
08:00+27wsw349069 1.9 1000419
11:00+29wsw558055 0.1 1000711
14:00+25wnw469567 1.4 999330
17:00+26wnw339180 0.1 999369
20:00+25wnw239470 0.1 1000140
6 july, wed
wed623:00+24w129598 0.1 100175
02:00+24w239683 0.1 1000111
05:00+24w249799 0.1 1000161
08:00+26w228884 0.9 1002375
11:00+29wnw227595 0.1 1001863
14:00+29wsw337599 0.3 1000544
17:00+32ese026477 0.0 999807
20:00+27sse348910 0.0 100099